This is the latest recevied weather packets stored in our database for station/object EMGATE. If no packets are shown the sender has not sent any weather packets the latest 10 day(s).
| Time | Temp. | Humidity | Pressure | Rain* | Wind** | Luminosity | Snow |
|---|---|---|---|---|---|---|---|
| 1777701857 | 0° C | 72% | 1012.9 hPa | 0 mm | - | - | - |
| 1777700957 | 0.56° C | 72% | 1012.8 hPa | 0 mm | - | - | - |
| 1777700057 | 0.56° C | 72% | 1012.6 hPa | 0 mm | - | - | - |
| 1777699157 | 0.56° C | 71% | 1012.8 hPa | 0 mm | - | - | - |
| 1777698257 | 1.11° C | 70% | 1012.7 hPa | 0 mm | - | - | - |
| 1777697357 | 1.11° C | 69% | 1012.6 hPa | 0 mm | - | - | - |
| 1777696513 | 1.67° C | 68% | 1012.5 hPa | 0 mm | - | - | - |
| 1777696457 | 1.67° C | 68% | 1012.5 hPa | 0 mm | - | - | - |
| 1777695557 | 1.67° C | 68% | 1012.6 hPa | 0 mm | - | - | - |
| 1777694657 | 1.67° C | 67% | 1012.4 hPa | 0 mm | - | - | - |
| 1777693757 | 1.67° C | 68% | 1012.4 hPa | 0 mm | - | - | - |
| 1777692857 | 2.22° C | 67% | 1012.5 hPa | 0 mm | - | - | - |
| 1777691957 | 2.22° C | 66% | 1012.5 hPa | 0 mm | - | - | - |
| 1777691057 | 2.78° C | 65% | 1012.5 hPa | 0 mm | - | - | - |
| 1777690157 | 2.78° C | 64% | 1012.5 hPa | 0 mm | - | - | - |
| 1777689257 | 3.33° C | 63% | 1012.3 hPa | 0 mm | - | - | - |
| 1777688357 | 3.33° C | 62% | 1012.3 hPa | 0 mm | - | - | - |
| 1777687493 | 3.89° C | 61% | 1012.2 hPa | 0 mm | - | - | - |
| 1777687457 | 3.89° C | 61% | 1012.2 hPa | 0 mm | - | - | - |
| 1777686557 | 4.44° C | 60% | 1012.3 hPa | 0 mm | - | - | - |
| 1777685693 | 4.44° C | 60% | 1012.3 hPa | 0 mm | - | - | - |
| 1777685657 | 4.44° C | 60% | 1012.3 hPa | 0 mm | - | - | - |
| 1777684757 | 5° C | 58% | 1012.3 hPa | 0 mm | - | - | - |
| 1777683857 | 5° C | 57% | 1012.2 hPa | 0 mm | - | - | - |
| 1777682957 | 5.56° C | 56% | 1012 hPa | 0 mm | - | - | - |
* Rain latest hour (hover to see other rain measurements)
** Current wind speed in m/s (hover to see current wind gust speed)